Location: Chmeln�
(49.6483°N, 14.9871°E)
Time: 05:22:46
(UTC+00:00)

Meteor 2-5 Rocket - Pass Details

Date: 18 September 2020
Orbit: 833 x 912 km, 81.2° (Epoch: 27 October)

Event Time Altitude Azimuth Distance (km) Brightness Sun altitude
Rises 18:37:29 0° 352° (N) 3,412 7.3 -15.3°
Reaches altitude 10° 18:40:02 10° 359° (N) 2,481 6.4 -15.6°
Maximum altitude 18:45:21 42° 70° (ENE) 1,215 4.2 -16.4°
Enters shadow 18:47:55 27° 122° (ESE) 1,608 4.6 -16.8°
